Location: Monfort
(47.1967°N, 0.2115°W)
Time: 12:10:18
(UTC+00:00)

ATLAS 2AS CENTAUR R/B - Pass Details

Date: 24 October 2020
Orbit: 939 x 1273 km, 63.7° (Epoch: 23 November)

Event Time Altitude Azimuth Distance (km) Brightness Sun altitude
Rises 20:06:08 0° 319° (NW) 4,169 6.6 -32.5°
Reaches altitude 10° 20:09:04 10° 323° (NW) 3,164 5.8 -33.0°
Enters shadow 20:15:19 53° 5° (N) 1,404 3.2 -34.0°
